Flag for Australia Weather past 2 weeks in Toowoomba, Queensland, Australia

Now
45 °F

Cool.


Feels Like: 41 °F
Forecast: 37 / 58 °F
Wind: 8 mph from West

Location: Oakey Aerodrome

Current Time: Jul 2, 2015 at 8:41:47 PM

Latest Report: Jul 2, 2015 at 7:00 PM


Visibility: N/A

Pressure: 30.20 "Hg

Humidity: 73%

Dew point: 37 °F

Location of ToowoombaLocation

Historic Weather in Toowoomba — Graph

°F

Toowoomba temperature yesterday

Maximum temperature yesterday: 67 °F (at 1:00 PM)
Minimum temperature yesterday: 49 °F (at 9:00 PM)
Average temperature yesterday: 56 °F

Past Weeks' High & Low Weather Summary

 TemperatureHumidityPressure
High70 °F (Jun 28, 3:00 PM)100% (Jun 19, 3:00 AM)30.47 "Hg (Jun 19, 3:00 AM)
Low33 °F (Jun 21, 7:00 AM)42% (Jun 21, 1:00 PM)30.00 "Hg (Jun 18, 4:00 PM)
Average53 °F81%30.26 "Hg
* Reported Jun 17 7:00 PM — Jul 2 7:00 PM, Toowoomba, Weather by CustomWeather, © 2015

Note: Actual official high and low records may vary slightly from our data, if they occured in-between our weather recording intervals... More about our weather records

Advertising

Toowoomba weather history for previous 24 hours

 ConditionsComfort  
Time TempWeatherWind HumidityBarometerVisibility
7:00 PM
Thu, Jul 2
45 °FCool.8 mph73%30.20 "HgN/A
6:00 PM48 °FCool.12 mph65%30.18 "HgN/A
4:00 PM56 °FRefreshingly cool.20 mph48%30.16 "HgN/A
3:00 PM59 °FPartly sunny.20 mph45%30.16 "HgN/A
1:00 PM57 °FRefreshingly cool.17 mph45%30.16 "HgN/A
12:00 PM57 °FOvercast.18 mph48%30.20 "HgN/A
10:00 AM53 °FCool.16 mph71%30.26 "HgN/A
9:00 AM48 °FLow clouds.7 mph93%30.27 "HgN/A
7:00 AM42 °FQuite cool.2 mph100%30.23 "HgN/A
6:00 AM42 °FQuite cool.9 mph96%30.21 "Hg2 mi
4:00 AM48 °FCool.6 mph98%30.22 "HgN/A
3:00 AM47 °FOvercast.5 mph99%30.22 "Hg4 mi
1:00 AM48 °FCool.9 mph93%30.24 "HgN/A
12:00 AM50 °FOvercast.8 mph94%30.26 "HgN/A
10:00 PM
Wed, Jul 1
50 °FCool.5 mph88%30.27 "HgN/A
9:00 PM49 °FOvercast.1 mph94%30.27 "HgN/A
Weather by CustomWeather, © 2015

See weather overviewHow to use our weather pages